owner,sensor,date,latitude,longitude,vertical_datum,wind_speed,wind_to_direction,wind_speed_of_gust,qcFlag 
NDBC,ioos:station:NOAA.NDBC:SANF1:1,2014-02-01T17:00:00Z,24.4560,-81.8770,45.4,4.6,120.0,4.6,'1111122,1111122,1111122' 
NDBC,ioos:station:NOAA.NDBC:SANF1:1,2014-02-01T18:00:00Z,24.4560,-81.8770,45.4,5.7,120.0,5.7,'1111122,1111122,1111122' 
NDBC,ioos:station:NOAA.NDBC:SANF1:1,2014-02-01T19:00:00Z,24.4560,-81.8770,45.4,6.2,100.0,6.2,'1111122,1111122,1111122' 
NDBC,ioos:station:NOAA.NDBC:SANF1:1,2014-02-01T20:00:00Z,24.4560,-81.8770,45.4,4.1,100.0,4.6,'1111122,1111122,1111122' 
NDBC,ioos:station:NOAA.NDBC:SANF1:1,2014-02-01T21:00:00Z,24.4560,-81.8770,45.4,5.1,100.0,5.1,'1111122,1111122,1111122' 
NDBC,ioos:station:NOAA.NDBC:SANF1:1,2014-02-01T22:00:00Z,24.4560,-81.8770,45.4,5.1,80.0,5.7,'1111122,1111122,1111122' 
NDBC,ioos:station:NOAA.NDBC:SANF1:1,2014-02-02T17:00:00Z,24.4560,-81.8770,45.4,6.7,110.0,7.2,'1111122,1111122,1111122' 
NDBC,ioos:station:NOAA.NDBC:SANF1:1,2014-02-02T18:00:00Z,24.4560,-81.8770,45.4,7.2,90.0,7.7,'1111122,1111122,1111122' 
NDBC,ioos:station:NOAA.NDBC:SANF1:1,2014-02-02T19:00:00Z,24.4560,-81.8770,45.4,6.7,90.0,7.2,'1111122,1111122,1111122' 
NDBC,ioos:station:NOAA.NDBC:SANF1:1,2014-02-02T20:00:00Z,24.4560,-81.8770,45.4,8.2,110.0,9.3,'1111122,1111122,1111122' 
NDBC,ioos:station:NOAA.NDBC:SANF1:1,2014-02-02T21:00:00Z,24.4560,-81.8770,45.4,8.2,110.0,8.8,'1111122,1111122,1111122' 
NDBC,ioos:station:NOAA.NDBC:SANF1:1,2014-02-02T22:00:00Z,24.4560,-81.8770,45.4,7.2,100.0,-9999.0,'1111122,1111122,1111122' 
NDBC,ioos:station:NOAA.NDBC:SANF1:1,2014-02-03T17:00:00Z,24.4560,-81.8770,45.4,4.6,130.0,4.6,'1111122,1111122,1111122' 
NDBC,ioos:station:NOAA.NDBC:SANF1:1,2014-02-03T18:00:00Z,24.4560,-81.8770,45.4,4.6,100.0,5.7,'1111122,1111122,1111122' 
NDBC,ioos:station:NOAA.NDBC:SANF1:1,2014-02-03T19:00:00Z,24.4560,-81.8770,45.4,5.1,90.0,5.7,'1111122,1111122,1111122' 
NDBC,ioos:station:NOAA.NDBC:SANF1:1,2014-02-03T20:00:00Z,24.4560,-81.8770,45.4,5.1,90.0,5.7,'1111122,1111122,1111122' 
NDBC,ioos:station:NOAA.NDBC:SANF1:1,2014-02-03T21:00:00Z,24.4560,-81.8770,45.4,6.2,100.0,6.7,'1111122,1111122,1111122' 
NDBC,ioos:station:NOAA.NDBC:SANF1:1,2014-02-03T22:00:00Z,24.4560,-81.8770,45.4,6.7,100.0,7.2,'1111122,1111122,1111122' 
NDBC,ioos:station:NOAA.NDBC:SANF1:1,2014-02-13T18:00:00Z,24.4560,-81.8770,45.4,9.8,330.0,10.3,'1111122,1111122,1111122' 
NDBC,ioos:station:NOAA.NDBC:SANF1:1,2014-02-14T17:00:00Z,24.4560,-81.8770,45.4,4.1,10.0,-9999.0,'1111122,1111122,1111122' 
NDBC,ioos:station:NOAA.NDBC:SANF1:1,2014-02-14T18:00:00Z,24.4560,-81.8770,45.4,1.0,340.0,1.5,'1111122,1111122,1111122' 
NDBC,ioos:station:NOAA.NDBC:SANF1:1,2014-02-14T19:00:00Z,24.4560,-81.8770,45.4,3.1,350.0,4.1,'1111122,1111122,1111122' 
NDBC,ioos:station:NOAA.NDBC:SANF1:1,2014-02-14T20:00:00Z,24.4560,-81.8770,45.4,1.5,10.0,2.1,'1111122,1111122,1111122' 
NDBC,ioos:station:NOAA.NDBC:SANF1:1,2014-02-14T21:00:00Z,24.4560,-81.8770,45.4,1.0,30.0,1.5,'1111122,1111122,1111122' 
NDBC,ioos:station:NOAA.NDBC:SANF1:1,2014-02-14T22:00:00Z,24.4560,-81.8770,45.4,1.5,350.0,2.1,'1111122,1111122,1111122' 
NDBC,ioos:station:NOAA.NDBC:SANF1:1,2014-02-15T18:00:00Z,24.4560,-81.8770,45.4,5.7,310.0,6.2,'1111122,1111122,1111122' 
NDBC,ioos:station:NOAA.NDBC:SANF1:1,2014-02-15T19:00:00Z,24.4560,-81.8770,45.4,4.1,300.0,4.6,'1111122,1111122,1111122' 
NDBC,ioos:station:NOAA.NDBC:SANF1:1,2014-02-15T20:00:00Z,24.4560,-81.8770,45.4,5.1,340.0,6.2,'1111122,1111122,1111122' 
NDBC,ioos:station:NOAA.NDBC:SANF1:1,2014-02-15T21:00:00Z,24.4560,-81.8770,45.4,5.7,330.0,6.7,'1111122,1111122,1111122' 
NDBC,ioos:station:NOAA.NDBC:SANF1:1,2014-02-15T22:00:00Z,24.4560,-81.8770,45.4,3.1,310.0,3.6,'1111122,1111122,1111122' 
NDBC,ioos:station:NOAA.NDBC:SANF1:1,2014-02-16T17:00:00Z,24.4560,-81.8770,45.4,5.7,10.0,6.2,'1111122,1111122,1111122' 
NDBC,ioos:station:NOAA.NDBC:SANF1:1,2014-02-16T18:00:00Z,24.4560,-81.8770,45.4,4.6,10.0,5.7,'1111122,1111122,1111122' 
NDBC,ioos:station:NOAA.NDBC:SANF1:1,2014-02-16T19:00:00Z,24.4560,-81.8770,45.4,5.7,10.0,5.7,'1111122,1111122,1111122' 
NDBC,ioos:station:NOAA.NDBC:SANF1:1,2014-02-16T20:00:00Z,24.4560,-81.8770,45.4,3.1,30.0,3.6,'1111122,1111122,1111122' 
NDBC,ioos:station:NOAA.NDBC:SANF1:1,2014-02-16T21:00:00Z,24.4560,-81.8770,45.4,3.6,20.0,4.6,'1111122,1111122,1111122' 
NDBC,ioos:station:NOAA.NDBC:SANF1:1,2014-02-16T22:00:00Z,24.4560,-81.8770,45.4,4.6,20.0,5.1,'1111122,1111122,1111122' 
NDBC,ioos:station:NOAA.NDBC:SANF1:1,2014-02-17T17:00:00Z,24.4560,-81.8770,45.4,8.2,60.0,8.8,'1111122,1111122,1111122' 
NDBC,ioos:station:NOAA.NDBC:SANF1:1,2014-02-17T18:00:00Z,24.4560,-81.8770,45.4,8.8,60.0,9.8,'1111122,1111122,1111122' 
NDBC,ioos:station:NOAA.NDBC:SANF1:1,2014-02-17T19:00:00Z,24.4560,-81.8770,45.4,8.8,70.0,9.3,'1111122,1111122,1111122' 
NDBC,ioos:station:NOAA.NDBC:SANF1:1,2014-02-17T20:00:00Z,24.4560,-81.8770,45.4,9.3,70.0,10.3,'1111122,1111122,1111122' 
NDBC,ioos:station:NOAA.NDBC:SANF1:1,2014-02-17T21:00:00Z,24.4560,-81.8770,45.4,10.3,70.0,11.3,'1111122,1111122,1111122' 
NDBC,ioos:station:NOAA.NDBC:SANF1:1,2014-02-17T22:00:00Z,24.4560,-81.8770,45.4,10.3,70.0,11.3,'1111122,1111122,1111122' 
NDBC,ioos:station:NOAA.NDBC:SANF1:1,2014-02-18T21:00:00Z,24.4560,-81.8770,45.4,10.3,80.0,11.3,'1111122,1111122,1111122' 
NDBC,ioos:station:NOAA.NDBC:SANF1:1,2014-02-18T22:00:00Z,24.4560,-81.8770,45.4,10.3,90.0,11.3,'1111122,1111122,1111122' 
NDBC,ioos:station:NOAA.NDBC:SANF1:1,2014-02-19T17:00:00Z,24.4560,-81.8770,45.4,7.7,120.0,8.8,'1111122,1111122,1111122' 
NDBC,ioos:station:NOAA.NDBC:SANF1:1,2014-02-19T18:00:00Z,24.4560,-81.8770,45.4,7.2,100.0,7.7,'1111122,1111122,1111122' 
NDBC,ioos:station:NOAA.NDBC:SANF1:1,2014-02-19T19:00:00Z,24.4560,-81.8770,45.4,8.2,100.0,8.8,'1111122,1111122,1111122' 
NDBC,ioos:station:NOAA.NDBC:SANF1:1,2014-02-19T20:00:00Z,24.4560,-81.8770,45.4,8.8,100.0,9.3,'1111122,1111122,1111122' 
NDBC,ioos:station:NOAA.NDBC:SANF1:1,2014-02-19T21:00:00Z,24.4560,-81.8770,45.4,8.8,100.0,9.3,'1111122,1111122,1111122' 
NDBC,ioos:station:NOAA.NDBC:SANF1:1,2014-02-19T22:00:00Z,24.4560,-81.8770,45.4,10.3,110.0,10.8,'1111122,1111122,1111122' 
NDBC,ioos:station:NOAA.NDBC:SANF1:1,2014-02-20T17:00:00Z,24.4560,-81.8770,45.4,7.2,120.0,7.7,'1111122,1111122,1111122' 
NDBC,ioos:station:NOAA.NDBC:SANF1:1,2014-02-20T18:00:00Z,24.4560,-81.8770,45.4,7.7,110.0,8.8,'1111122,1111122,1111122' 
NDBC,ioos:station:NOAA.NDBC:SANF1:1,2014-02-20T19:00:00Z,24.4560,-81.8770,45.4,7.7,100.0,8.8,'1111122,1111122,1111122' 
NDBC,ioos:station:NOAA.NDBC:SANF1:1,2014-02-20T20:00:00Z,24.4560,-81.8770,45.4,8.8,110.0,9.3,'1111122,1111122,1111122' 
NDBC,ioos:station:NOAA.NDBC:SANF1:1,2014-02-20T21:00:00Z,24.4560,-81.8770,45.4,9.8,100.0,10.8,'1111122,1111122,1111122' 
NDBC,ioos:station:NOAA.NDBC:SANF1:1,2014-02-20T22:00:00Z,24.4560,-81.8770,45.4,10.3,100.0,11.3,'1111122,1111122,1111122' 
NDBC,ioos:station:NOAA.NDBC:SANF1:1,2014-02-21T17:00:00Z,24.4560,-81.8770,45.4,9.3,160.0,9.8,'1111122,1111122,1111122' 
NDBC,ioos:station:NOAA.NDBC:SANF1:1,2014-02-21T18:00:00Z,24.4560,-81.8770,45.4,8.8,160.0,9.8,'1111122,1111122,1111122' 
NDBC,ioos:station:NOAA.NDBC:SANF1:1,2014-02-21T19:00:00Z,24.4560,-81.8770,45.4,6.2,160.0,6.7,'1111122,1111122,1111122' 
NDBC,ioos:station:NOAA.NDBC:SANF1:1,2014-02-21T20:00:00Z,24.4560,-81.8770,45.4,4.6,150.0,5.1,'1111122,1111122,1111122' 
NDBC,ioos:station:NOAA.NDBC:SANF1:1,2014-02-21T22:00:00Z,24.4560,-81.8770,45.4,3.6,110.0,3.6,'1111122,1111122,1111122' 
NDBC,ioos:station:NOAA.NDBC:SANF1:1,2014-02-22T17:00:00Z,24.4560,-81.8770,45.4,2.1,140.0,2.6,'1111122,1111122,1111122' 
NDBC,ioos:station:NOAA.NDBC:SANF1:1,2014-02-22T18:00:00Z,24.4560,-81.8770,45.4,2.6,120.0,2.6,'1111122,1111122,1111122' 
NDBC,ioos:station:NOAA.NDBC:SANF1:1,2014-02-22T19:00:00Z,24.4560,-81.8770,45.4,3.1,100.0,3.6,'1111122,1111122,1111122' 
NDBC,ioos:station:NOAA.NDBC:SANF1:1,2014-02-22T20:00:00Z,24.4560,-81.8770,45.4,3.6,120.0,3.6,'1111122,1111122,1111122' 
NDBC,ioos:station:NOAA.NDBC:SANF1:1,2014-02-22T21:00:00Z,24.4560,-81.8770,45.4,3.6,100.0,3.6,'1111122,1111122,1111122' 
NDBC,ioos:station:NOAA.NDBC:SANF1:1,2014-02-23T17:00:00Z,24.4560,-81.8770,45.4,4.1,130.0,4.6,'1111122,1111122,1111122' 
NDBC,ioos:station:NOAA.NDBC:SANF1:1,2014-02-23T18:00:00Z,24.4560,-81.8770,45.4,2.6,120.0,3.1,'1111122,1111122,1111122' 
NDBC,ioos:station:NOAA.NDBC:SANF1:1,2014-02-23T19:00:00Z,24.4560,-81.8770,45.4,2.6,110.0,2.6,'1111122,1111122,1111122' 
NDBC,ioos:station:NOAA.NDBC:SANF1:1,2014-02-23T21:00:00Z,24.4560,-81.8770,45.4,2.1,80.0,2.6,'1111122,1111122,1111122' 
NDBC,ioos:station:NOAA.NDBC:SANF1:1,2014-02-23T22:00:00Z,24.4560,-81.8770,45.4,2.6,80.0,3.1,'1111122,1111122,1111122' 
NDBC,ioos:station:NOAA.NDBC:SANF1:1,2014-02-24T17:00:00Z,24.4560,-81.8770,45.4,1.5,190.0,2.1,'1111122,1111122,1111122' 
NDBC,ioos:station:NOAA.NDBC:SANF1:1,2014-02-24T18:00:00Z,24.4560,-81.8770,45.4,1.5,220.0,1.5,'1111122,1111122,1111122' 
NDBC,ioos:station:NOAA.NDBC:SANF1:1,2014-02-24T20:00:00Z,24.4560,-81.8770,45.4,1.5,310.0,2.1,'1111122,1111122,1111122' 
NDBC,ioos:station:NOAA.NDBC:SANF1:1,2014-02-24T21:00:00Z,24.4560,-81.8770,45.4,2.1,310.0,2.1,'1111122,1111122,1111122' 
 
DISCLAIMER: The Gulf of Mexico Coastal and Ocean Observing (GCOOS) Data Portal aggregates data from the regional data providers for the convenience of all data users. Data published on this website should not be used for navigation or certain other uses as we cannot guarantee data accuracy or availability. The data and delivery services are provided 'as is' without warranty of any kind. Data Source: Gulf of Mexico Coastal Ocean Observing System Data Portal (http://data.gcoos.org/) 
